Regional Weather Roundup
Issued by NWS

Home | Current Version | Previous Version | Text Only | Print | Product List | Glossary Off
Versions: 1 2 3 4 5 6 7 8 9 10 11 12 13 14 15 16 17 18 19 20 21 22 23 24 25 26 27 28 29 30 31 32 33 34 35 36 37 38 39 40 41 42 43 44 45 46 47 48 49 50

000
ASUS43 KLOT 190906
RWRIL

ILLINOIS REGIONAL WEATHER ROUNDUP
NATIONAL WEATHER SERVICE CHICAGO/ROMEOVILLE IL
300 AM CST FRI DEC 19 2014

NOTE: "FAIR" INDICATES FEW OR NO CLOUDS BELOW 12,000 FEET WITH NO
SIGNIFICANT WEATHER AND/OR OBSTRUCTIONS TO VISIBILITY.

* THESE STATIONS ARE NOT UNDER NWS QUALITY CONTROL. THEY ALSO MAY NOT
  REPORT WEATHER SUCH AS PRECIPITATION OR FOG.

ILZ001-002-007-009-015-016-024-191000-
NORTHWEST ILLINOIS

CITY           SKY/WX    TMP DP  RH WIND       PRES   REMARKS
MOLINE         CLEAR     16  14  92 CALM      30.31S
STERLING*      CLOUDY    25  19  80 W6        30.30S WCI  18
SAVANNA*       CLOUDY    26  19  74 CALM      30.31R
$$

ILZ003-004-008-010-011-017-018-191000-
NORTH CENTRAL ILLINOIS

CITY           SKY/WX    TMP DP  RH WIND       PRES   REMARKS
ROCKFORD       CLOUDY    27  20  75 CALM      30.30S
FREEPORT*      CLOUDY    25  21  84 CALM      30.30S
ROCHELLE*      CLOUDY    25  21  84 W5        30.29S WCI  20
DE KALB*       CLOUDY    24  20  83 W6        30.28S WCI  17
PERU*          MOCLDY    20  17  88 W7        30.31S WCI  11
$$

ILZ005-006-012>014-019>023-191000-
NORTHEAST ILLINOIS

CITY           SKY/WX    TMP DP  RH WIND       PRES   REMARKS
CHICAGO-OHARE  CLOUDY    28  22  78 NW5       30.26F WCI  23
CHICAGO-MIDWAY FLURRIES  29  23  78 NW6       30.28R WCI  23
AURORA         CLOUDY    26  20  77 NW5       30.28S WCI  20
LANSING*       CLOUDY    28  23  81 W3        30.27S
JOLIET*        CLOUDY    26  20  77 W6        30.29S WCI  20
WAUKEGAN       CLOUDY    27  21  78 NW5       30.26S WCI  22
DUPAGE AIRPORT CLOUDY    27  20  75 W5        30.27S WCI  22
KANKAKEE*      CLOUDY    26  22  87 W5        30.30R WCI  20
WHEELING       CLOUDY    28  23  81 N6        30.29S WCI  22
MORRIS*        CLOUDY    23  21  90 W5        30.29S WCI  17
ROMEOVILLE*    CLOUDY    27  21  79 NW7       30.28S WCI  19
NORTHERLY ISL    N/A     30  24  78 NW5         N/A  WCI  25
$$

LMZ740>746-191000-
SOUTHERN LAKE MICHIGAN

STATION/POSITION SKY/WX   TEMP    WIND        PRES    VSBY  WAVE
                          AIR SEA DIR/SP/G                  HT/PER
                          (F)     (DEG/KT/KT) (MB)    (MI)  (FT/S)
WAUKEGAN HARBOR            29     270/  2/  6   N/A
HARRISON CRIB              29     300/ 10/ 13   N/A
BURNHAM HARBOR             30     320/  1/ 11   N/A
CALUMET HARBOR             29     280/  5/  9 1023.8R
$$

ILZ025>027-034>036-040-047-049-050-058-095>099-191000-
WEST-CENTRAL ILLINOIS

CITY           SKY/WX    TMP DP  RH WIND       PRES   REMARKS
QUINCY         CLOUDY    28  24  85 CALM      30.28S
GALESBURG*     CLOUDY    21  19  93 CALM      30.30S
MACOMB*        CLOUDY    28  25  87 CALM      30.31F
JACKSONVILLE*  CLOUDY    31  26  84 CALM      30.30R
PITTSFIELD*    CLOUDY    30  28  90 CALM      30.29S
$$

ILZ028>032-037-038-041>044-048-051>054-059>061-191000-
CENTRAL ILLINOIS

CITY           SKY/WX    TMP DP  RH WIND       PRES   REMARKS
PONTIAC        CLEAR     19  17  90 W5        30.31S WCI  12
BLOOMINGTON    CLEAR     19  17  92 N3        30.29S
DECATUR        CLEAR     20  17  88 NE6       30.29S WCI  12
PEORIA         PTCLDY    20  16  84 CALM      30.31R
LACON*         CLEAR     16  14  90 CALM      30.31S FOG
LINCOLN*       CLEAR     22  20  91 CALM      30.32S
SPRINGFIELD    CLOUDY    29  22  75 N5        30.29F WCI  24
TAYLORVILLE    CLOUDY    28  27  93 N6        30.29S WCI  22
$$

ILZ033-039-045-046-055>057-062-063-191000-
EAST-CENTRAL ILLINOIS

CITY           SKY/WX    TMP DP  RH WIND       PRES   REMARKS
CHAMPAIGN      CLEAR     19  14  81 N5        30.28S WCI  12
DANVILLE*      CLEAR     19  17  93 CALM      30.26S
RANTOUL*       CLEAR     19  17  91 W3        30.29R
MATTOON        CLOUDY    25  22  88 N3        30.27S
PARIS*         CLEAR     24  22  92 CALM      30.29F
$$

ILZ079-100>102-191000-
SOUTHWEST ILLINOIS

CITY           SKY/WX    TMP DP  RH WIND       PRES   REMARKS
ALTON          CLOUDY    31  27  86 CALM      30.30R
BELLEVILLE     CLEAR     28  27  94 CALM      30.29R
CAHOKIA*       CLOUDY    34  28  79 NE3       30.30R
SPARTA*        CLOUDY    31  28  88 CALM      30.30R
$$

ILZ064>066-069>071-074>076-080>082-084>086-088>090-092>094-191000-
SOUTH-CENTRAL ILLINOIS

CITY           SKY/WX    TMP DP  RH WIND       PRES   REMARKS
CARBONDALE     CLOUDY    32  27  81 CALM      30.29S
CAIRO*         CLOUDY    37  33  86 N6        30.28S WCI  32
EFFINGHAM*     CLOUDY    28  24  83 CALM      30.30F HAZE
MARION         CLOUDY    32  28  86 CALM      30.29S
MT. VERNON     CLEAR     27  19  74 CALM      30.29S
CENTRALIA*     CLOUDY    31  26  81 CALM      30.28S
SALEM*         CLOUDY    32  28  82 NE3       30.28F
METROPOLIS*    CLOUDY    34  31  88 N3        30.27S FOG
$$

ILZ067-068-072-073-078-083-087-091-191000-
SOUTHEAST ILLINOIS

CITY           SKY/WX    TMP DP  RH WIND       PRES   REMARKS
LAWRENCEVILLE  CLEAR     26  23  88 N5        30.30R WCI  20
FLORA*         CLEAR     29  26  87 N3        30.30R
FAIRFIELD*     CLOUDY    29  27  93 CALM      30.28S FOG
HARRISBURG*    CLOUDY    32  29  89 CALM      30.30S
ROBINSON*      CLOUDY    28  26  92 N5        30.31S WCI  22
CARMI*         CLOUDY    33  29  88 N3        30.29S
$$

ABBREVIATIONS USED IN REMARKS
   TC - TEMPERATURE IN CELSIUS
  WCI - WIND CHILL INDEX
   HX - HEAT INDEX
  VSB - VISIBILITY
$$




USA.gov is the U.S. government's official web portal to all federal, state and local government web resources and services.